EDT,Max TemperatureF,Mean TemperatureF,Min TemperatureF,Max Dew PointF,MeanDew PointF,Min DewpointF,Max Humidity, Mean Humidity, Min Humidity, Max Sea Level PressureIn, Mean Sea Level PressureIn, Min Sea Level PressureIn, Max VisibilityMiles, Mean VisibilityMiles, Min VisibilityMiles, Max Wind SpeedMPH, Mean Wind SpeedMPH, Max Gust SpeedMPH,PrecipitationIn, CloudCover, Events, WindDirDegrees
2013-7-1,82,75,69,70,68,65,100,83,62,30.02,29.92,29.84,10,10,4,9,2,21,0.10,6,Rain,171
2013-7-2,77,74,71,72,69,68,94,87,74,30.20,30.10,29.98,10,9,2,12,7,18,0.18,8,Rain,170
2013-7-3,80,76,71,73,71,70,97,90,71,30.26,30.21,30.13,10,8,2,8,4,,0.38,7,Rain-Thunderstorm,161
2013-7-4,87,80,73,73,71,66,94,86,55,30.29,30.24,30.18,10,8,0,16,6,33,0.42,6,Rain-Thunderstorm,164
2013-7-5,86,78,71,72,71,67,100,83,58,30.29,30.24,30.19,10,10,8,10,5,18,0.03,5,Rain-Thunderstorm,175
2013-7-6,86,78,71,72,70,66,94,82,53,30.28,30.21,30.12,10,9,1,14,3,25,0.34,6,Rain-Thunderstorm,184
2013-7-7,84,78,71,72,70,66,94,83,65,30.23,30.16,30.07,10,9,2,15,3,16,0.18,7,Rain-Thunderstorm,219
2013-7-8,87,78,71,72,68,61,94,80,43,30.21,30.16,30.10,10,10,4,8,3,,0.11,5,Rain-Thunderstorm,276
2013-7-9,89,80,73,73,71,67,94,77,51,30.20,30.14,30.06,10,10,5,7,3,,0.00,3,,196
2013-7-10,87,78,71,72,70,68,94,78,57,30.11,30.04,29.94,10,10,3,8,5,,0.06,4,Rain-Thunderstorm,210
2013-7-11,82,76,71,73,71,69,94,86,69,30.01,29.94,29.89,10,10,2,7,3,,0.22,6,Rain-Thunderstorm,218
2013-7-12,78,72,68,70,66,64,100,84,66,30.07,29.96,29.89,10,6,0,12,3,17,0.02,7,Fog-Rain-Thunderstorm,51
2013-7-13,79,73,68,72,69,64,96,86,74,30.17,30.12,30.04,10,8,1,10,7,,0.01,8,Rain,59
2013-7-14,87,79,71,72,70,67,97,81,53,30.33,30.26,30.16,10,9,4,13,9,20,0.02,6,Rain,110
2013-7-15,88,78,70,72,68,65,93,73,48,30.38,30.32,30.27,10,10,10,7,1,,0.00,3,,77
2013-7-16,91,80,69,71,68,65,93,65,46,30.30,30.26,30.22,10,10,10,8,2,16,0.00,1,Thunderstorm,322
2013-7-17,91,83,75,73,71,69,88,71,48,30.25,30.20,30.13,10,10,10,9,3,,0.00,3,Thunderstorm,348
2013-7-18,91,82,72,74,71,66,91,68,43,30.17,30.12,30.05,10,10,9,8,2,,0.00,2,Thunderstorm,86
2013-7-19,90,82,75,73,72,69,91,71,52,30.10,30.05,29.99,10,9,5,10,3,,0.00,2,,210
2013-7-20,86,80,73,72,71,64,91,79,61,30.07,30.00,29.94,10,10,4,8,5,,0.03,4,Rain-Thunderstorm,222
2013-7-21,90,80,72,73,71,66,94,81,55,30.01,29.98,29.94,10,9,7,15,3,23,0.05,3,Rain-Thunderstorm,207
2013-7-22,86,78,71,72,71,69,97,82,59,30.01,29.93,29.83,10,9,3,8,3,,0.00,4,,217
2013-7-23,90,80,71,72,67,63,90,68,43,29.85,29.81,29.75,10,10,10,10,5,18,0.00,2,,257
2013-7-24,91,81,72,67,66,63,84,63,40,29.88,29.80,29.76,10,10,4,10,4,16,0.03,1,Rain,323
2013-7-25,82,74,66,70,65,61,94,76,49,30.05,29.95,29.86,10,10,2,13,6,20,0.08,5,Rain-Thunderstorm,47
2013-7-26,84,74,66,66,64,60,93,70,49,30.12,30.07,30.03,10,10,8,7,2,,0.00,3,,167
2013-7-27,73,70,68,70,67,64,96,90,73,30.06,30.02,29.96,10,6,0,12,4,16,1.89,7,Fog-Rain-Thunderstorm,109
2013-7-28,84,76,69,72,68,65,94,80,54,30.01,29.97,29.93,10,8,2,9,2,,0.04,6,Rain-Thunderstorm,220
2013-7-29,84,75,66,70,63,54,100,77,35,30.19,30.09,30.01,10,6,0,8,3,,0.36,2,Fog-Rain,21
2013-7-30,82,72,64,67,61,56,84,64,48,30.25,30.19,30.16,10,10,10,7,4,,0.00,2,,32
2013-7-31,80,74,70,70,67,65,93,80,64,30.16,30.09,30.00,10,10,9,6,1,,0.01,7,Rain,150